Location: *
(30.1125°N, 97.3197°W)
Time: 21:56:26
(UTC+00:00)

Daily predictions for brighter satellites

Satellite Brightness Start Highest point End
(mag) Time Altitude Azimuth Time Altitude Azimuth Time Altitude Azimuth
Cosmos 1452 Rocket 3.6 12:00:01 10° SSW 12:05:08 52° WNW 12:10:17 10° N
CZ-4B DEB 4.2 12:01:40 10° N 12:07:05 58° WNW 12:12:30 10° SSW
CZ-4C R/B 3.1 12:01:07 12° NW 12:08:18 67° WSW 12:16:39 10° SSE
Okean O Rocket 1.5 12:07:52 10° N 12:12:15 72° WNW 12:16:38 10° SSW
Cosmos 44 3.2 12:07:59 10° SSW 12:12:54 90° WNW 12:17:34 10° NNE
Meteor 1-18 Rocket 4.4 12:07:33 10° N 12:13:06 74° E 12:18:41 10° SSE
Cosmos 1346 Rocket 2.6 12:10:47 10° S 12:14:38 85° W 12:18:30 10° N
Cosmos 1703 Rocket 3.6 12:11:19 10° NNW 12:15:39 56° W 12:19:56 10° S
Cosmos 407 Rocket 4.4 12:15:02 14° NW 12:18:43 30° W 12:23:18 10° SSW
Cosmos 1140 Rocket 3.8 12:14:06 10° NNW 12:19:03 45° WSW 12:24:00 10° S
NOAA 6 4.0 12:15:52 10° N 12:20:56 65° WNW 12:26:00 10° SSW
SJ-7 4.3 12:17:15 10° N 12:21:16 85° W 12:25:14 10° SSW
ALOS 2.8 12:19:11 10° N 12:23:28 37° WNW 12:27:44 10° SW
Cosmos 1869 Rocket 4.0 12:20:44 10° SSW 12:24:43 36° W 12:28:43 10° NNW
H-2A R/B 3.6 12:26:40 10° NNE 12:30:20 53° E 12:34:03 10° S
Lacrosse 5 3.8 12:28:36 10° W 12:30:44 13° WSW 12:33:03 10° SW
GEOS 3 Rocket 3.9 12:27:50 10° SSE 12:32:44 50° WSW 12:37:41 10° NW
FALCON 9 R/B 4.4 12:24:57 12° WNW 12:32:49 75° N 13:10:49 10° E
FENGYUN 3A 4.2 12:30:06 10° N 12:34:56 35° WNW 12:39:44 10° SW
Cosmos 1844 Rocket 3.3 12:30:40 10° S 12:36:10 63° ESE 12:41:41 10° NNE
CZ-4B R/B 3.5 12:32:25 10° N 12:37:46 47° WNW 12:43:09 10° SW
ADEOS Rocket 4.4 12:34:04 10° SE 12:40:59 48° ENE 12:47:17 10° N
AQUARIUS 4.5 12:39:13 10° NNE 12:43:42 73° E 12:48:11 10° S
CZ-4 R/B 4.4 12:47:17 10° NE 12:50:05 19° E 12:52:54 10° SE
Okean 1-7 4.1 23:50:37 10° SE 23:54:06 24° E 23:57:36 10° NE
